{"data":{"norad_id":66240,"intl_designator":"2025-245G","name":"STARLINK-35546","alt_names":[],"object_type":"PAYLOAD","status":"ACTIVE","operator":null,"country":"US","launch_date":"2025-10-29","launch_site_code":"AFETR","launch_vehicle":null,"mission":null,"orbit_class":"UNKNOWN","rcs_meters":null,"size_class":null,"mass_kg":null,"dimensions":null,"purposes":["comms"],"wikipedia_slug":null,"has_3d_model":false,"image_url":null,"decayed_at":null,"tle_current":{"epoch":"2026-05-25T03:15:02.880864Z","epoch_age_seconds":63689,"freshness":"FRESH","line1":"1 66240U 25245G   26145.13545001  .00021740  00000+0  74380-3 0  9991","line2":"2 66240  53.1593 288.6028 0001268  75.2508 284.8633 15.30207936 32964","mean_motion":15.30207936,"eccentricity":0.0001268,"inclination_deg":53.1593,"raan_deg":288.6028,"arg_perigee_deg":75.2508,"mean_anomaly_deg":284.8633,"bstar":0.0007438,"rev_number":3296,"period_min":94.10485765511,"perigee_km":474.32237201838,"apogee_km":476.06037609404,"semimajor_km":6853.3283740562,"source":"CELESTRAK","updated_at":"2026-05-25T13:38:21.134425Z"}}}